Погода в Лизьё

Франция     49°09′06″N   0°13′42″E
темп.,
°C
ветер,
м/с
пор.,
м/с
влажн.,
%
обл.,
%
осадки,
мм/ч
давл.,
гПа
погр.,
м
9 марта, вт
вт901:000в118884 0.0 102322
04:000зюз118821 0.0 102222
07:00−1зюз129222 0.0 102221
10:00+5зюз348638 0.0 1022226
13:00+9сз457346 0.0 1022783
16:00+8сз33714 0.0 1021557
19:00+3ссз11882 0.0 102122
22:00+2ю238767 0.0 102222
10 марта, ср
ср1001:00+2ююз349474 0.0 102165
04:00+2ююз4991100 0.0 1020240
07:00+3ююз51287100 0.0 1019374
10:00+5ююз81375100 0.0 1019652
13:00+7ююз81376100 0.0 1017764
16:00+6ююз91790100 1.5 1014789
19:00+6ююз101990100 3.4 1012711
22:00+8ююз112092100 0.3 1010677
11 марта, чт
чт1101:00+11ююз101991100 0.3 1008760
04:00+11юз91892100 0.6 10051125
07:00+10зюз81791100 1.8 10051328
10:00+10зюз10187763 0.3 10071652
13:00+10з12196972 1.1 10082106
16:00+10з12186699 0.6 10092001
19:00+6зюз8167451 0.8 10111223
22:00+5зюз715780 0.0 1014728
12 марта, пт
пт1201:00+4юз614820 0.0 1015526
04:00+3юз613832 0.0 1014444
07:00+4юз7168626 0.0 1013569
10:00+7юз9147698 0.1 10121221
13:00+9зюз11177699 0.3 10111587
16:00+9з91475100 1.6 10111643
19:00+6зюз61383100 1.8 1011894
22:00+6зюз71585100 0.0 10111124
13 марта, сб
сб1301:00+6юз81686100 0.0 1010889
04:00+7юз91787100 0.3 10081124
07:00+7юз91887100 0.7 10061253
10:00+8юз111987100 0.9 10051321
13:00+8зюз111989100 2.6 10041322
16:00+8зюз10197888 0.8 10031709
19:00+5з11188195 1.4 10041303
22:00+4з8167869 0.5 10071022